Cincinnati, OH

7:44 PM EDT on August 17, 2017 (GMT -0400)
Cincinnati Municipal-Lunken

Weather History for KLUK - April, 2013

Change the Weather History Date:

Monday, April 1, 2013

  Actual Average Record
Temperature  
Mean Temperature 42 °F -  
Max Temperature 48 °F 61 °F 85 °F (1963)
Min Temperature 37 °F 40 °F 19 °F (1964)
Degree Days  
Heating Degree Days 22    
Moisture  
Dew Point 26 °F    
Average Humidity 55    
Maximum Humidity 89    
Minimum Humidity 32    
Precipitation  
Precipitation 0.00 in - - ()
Sea Level Pressure  
Sea Level Pressure 30.02 in    
Wind  
Wind Speed 6 mph (NW)    
Max Wind Speed 15 mph    
Max Gust Speed 22 mph    
Visibility 10 miles    
Events Rain    
Averages and records for this station are not official NWS values.
T = Trace of Precipitation, MM = Missing Value Source: NWS Daily Summary

Daily Weather History Graph

Daily Weather History Graph

Search for Another Location

Airport or City:

Trip Planner

Search our weather history database for the weather conditions in past years. The results will help you decide how hot, cold, wet, or windy it might be!

Date:

Astronomy

Apr. 01, 2013 Rise Set
Actual Time 7:21 AM EDT 8:01 PM EDT
Civil Twilight 6:54 AM EDT 8:28 PM EDT
Nautical Twilight 6:23 AM EDT 9:00 PM EDT
Astronomical Twilight 5:50 AM EDT 9:33 PM EDT
Moon 1:06 AM EDT (4/1) 11:09 AM EDT (4/1)
Length of Visible Light 13h 33m
Length of Day
12h 39m
Waning Gibbous, 67% of the Moon is Illuminated
Apr 1
Waning Gibbous
Apr 3
Last Quarter
Apr 10
New
Apr 18
First Quarter
Apr 25
Full

Hourly Weather History & Observations

Time (EDT) Temp. Windchill Dew Point Humidity Pressure Visibility Wind Dir Wind Speed Gust Speed Precip Events Conditions
12:53 AM 46.9 °F - 39.0 °F 74% 29.82 in 10.0 mi Calm Calm - N/A   Clear
1:53 AM 46.0 °F 44.8 °F 39.0 °F 76% 29.84 in 10.0 mi SW 3.5 mph - N/A   Clear
2:53 AM 46.0 °F - 39.9 °F 79% 29.85 in 10.0 mi Calm Calm - N/A   Clear
3:53 AM 46.9 °F - 37.0 °F 68% 29.86 in 10.0 mi NW 5.8 mph - N/A   Clear
4:53 AM 44.1 °F 39.5 °F 34.0 °F 68% 29.88 in 10.0 mi NNW 8.1 mph - N/A   Partly Cloudy
5:53 AM 41.0 °F 35.8 °F 27.0 °F 57% 29.91 in 10.0 mi WNW 8.1 mph - N/A   Clear
6:53 AM 39.9 °F 35.8 °F 26.1 °F 58% 29.96 in 10.0 mi NW 5.8 mph - N/A   Mostly Cloudy
7:53 AM 39.9 °F 37.8 °F 28.9 °F 65% 30.00 in 10.0 mi Variable 3.5 mph - N/A   Overcast
8:53 AM 39.9 °F 32.9 °F 30.0 °F 68% 30.03 in 9.0 mi NNW 11.5 mph - 0.00 in   Overcast
9:24 AM 37.4 °F 29.8 °F 32.0 °F 81% 30.02 in 10.0 mi North 11.5 mph - 0.00 in Rain Light Rain
9:53 AM 37.0 °F 32.4 °F 34.0 °F 89% 30.05 in 10.0 mi North 5.8 mph - 0.00 in Rain Light Rain
10:06 AM 37.4 °F 32.8 °F 33.8 °F 87% 30.04 in 10.0 mi North 5.8 mph - N/A   Overcast
10:53 AM 42.1 °F 37.7 °F 30.9 °F 65% 30.05 in 10.0 mi Variable 6.9 mph - N/A   Overcast
11:53 AM 42.1 °F 36.6 °F 27.0 °F 55% 30.06 in 10.0 mi North 9.2 mph - N/A   Mostly Cloudy
12:53 PM 46.9 °F - 25.0 °F 42% 30.07 in 10.0 mi WNW 11.5 mph 19.6 mph N/A   Mostly Cloudy
1:53 PM 45.0 °F 43.5 °F 21.0 °F 39% 30.07 in 10.0 mi Variable 3.5 mph - N/A   Scattered Clouds
2:53 PM 48.0 °F - 21.9 °F 36% 30.06 in 10.0 mi West 13.8 mph 18.4 mph N/A   Scattered Clouds
3:53 PM 46.0 °F 41.0 °F 19.0 °F 34% 30.07 in 10.0 mi WNW 10.4 mph 17.3 mph N/A   Scattered Clouds
4:53 PM 48.0 °F - 19.0 °F 32% 30.07 in 10.0 mi WNW 15.0 mph 21.9 mph N/A   Scattered Clouds
5:53 PM 46.0 °F 41.9 °F 19.0 °F 34% 30.07 in 10.0 mi North 8.1 mph 20.7 mph N/A   Mostly Cloudy
6:53 PM 46.0 °F 41.0 °F 18.0 °F 33% 30.09 in 10.0 mi WNW 10.4 mph 19.6 mph N/A   Scattered Clouds
7:53 PM 44.1 °F 38.1 °F 16.0 °F 32% 30.10 in 10.0 mi West 11.5 mph 20.7 mph N/A   Scattered Clouds
8:53 PM 42.1 °F 37.7 °F 17.1 °F 37% 30.11 in 10.0 mi WNW 6.9 mph - N/A   Clear
9:53 PM 39.9 °F - 16.0 °F 38% 30.13 in 10.0 mi Calm Calm - N/A   Clear
10:53 PM 39.9 °F 37.8 °F 16.0 °F 38% 30.14 in 10.0 mi Variable 3.5 mph - N/A   Clear
11:53 PM 37.9 °F 35.5 °F 16.0 °F 41% 30.15 in 10.0 mi NNW 3.5 mph - N/A   Clear